• In Hungary
  • List of Countries
  • For 7 days
  • Water Temperature
  • Satellite Maps
  • Weather Map
  • News
  • Weather Widgets
  • user-avatar
    Login

    Hourly Weather Sharagol

    Today, 13 December, Wednesday

    Time Temperature Precipitation Wind Pressure Humidity
    00:00 -18°C° 0.1 mm 1 mps 596 mmHg 93%
    01:00 -20°C° 0 mm 2 mps 596 mmHg 94%
    02:00 -21°C° 0.1 mm 2 mps 596 mmHg 94%
    03:00 -21°C° 0.1 mm 2 mps 596 mmHg 94%
    04:00 -20°C° 0.1 mm 1 mps 597 mmHg 94%
    05:00 -20°C° 0.1 mm 1 mps 597 mmHg 94%
    06:00 -21°C° 0.1 mm 1 mps 597 mmHg 94%
    07:00 -24°C° 0 mm 2 mps 597 mmHg 91%
    08:00 -24°C° 0 mm 2 mps 598 mmHg 90%
    09:00 -23°C° 0 mm 2 mps 598 mmHg 89%
    10:00 -20°C° 0 mm 1 mps 598 mmHg 87%
    11:00 -19°C° 0 mm 1 mps 599 mmHg 86%
    12:00 -18°C° 0 mm 1 mps 599 mmHg 84%
    13:00 -17°C° 0 mm 1 mps 600 mmHg 82%
    14:00 -19°C° 0 mm 1 mps 599 mmHg 84%
    15:00 -20°C° 0 mm 1 mps 599 mmHg 86%
    16:00 -21°C° 0 mm 1 mps 598 mmHg 88%
    17:00 -21°C° 0 mm 1 mps 599 mmHg 87%
    18:00 -22°C° 0 mm 1 mps 599 mmHg 87%
    19:00 -22°C° 0 mm 1 mps 599 mmHg 87%
    20:00 -22°C° 0 mm 1 mps 599 mmHg 87%
    21:00 -23°C° 0 mm 1 mps 599 mmHg 87%
    22:00 -23°C° 0 mm 1 mps 599 mmHg 87%
    23:00 -23°C° 0 mm 1 mps 599 mmHg 86%

    Tomorrow, 14 December, Thursday

    Time Temperature Precipitation Wind Pressure Humidity
    00:00 -27°C° 0 mm 2 mps 599 mmHg 86%
    01:00 -27°C° 0 mm 2 mps 599 mmHg 85%
    02:00 -27°C° 0 mm 2 mps 599 mmHg 85%
    03:00 -28°C° 0 mm 2 mps 599 mmHg 84%
    04:00 -28°C° 0 mm 2 mps 599 mmHg 84%
    05:00 -28°C° 0 mm 2 mps 599 mmHg 84%
    06:00 -28°C° 0 mm 2 mps 599 mmHg 83%
    07:00 -28°C° 0 mm 2 mps 599 mmHg 83%
    08:00 -27°C° 0 mm 2 mps 600 mmHg 84%
    09:00 -26°C° 0 mm 2 mps 600 mmHg 84%
    10:00 -25°C° 0 mm 2 mps 600 mmHg 84%
    11:00 -24°C° 0 mm 2 mps 601 mmHg 83%
    12:00 -24°C° 0 mm 3 mps 601 mmHg 81%
    13:00 -23°C° 0 mm 3 mps 601 mmHg 79%
    14:00 -24°C° 0 mm 3 mps 601 mmHg 81%
    15:00 -24°C° 0 mm 2 mps 600 mmHg 84%
    16:00 -25°C° 0 mm 2 mps 600 mmHg 86%
    17:00 -26°C° 0 mm 2 mps 600 mmHg 87%
    18:00 -26°C° 0 mm 2 mps 600 mmHg 88%
    19:00 -26°C° 0 mm 2 mps 600 mmHg 89%
    20:00 -26°C° 0 mm 2 mps 601 mmHg 90%
    21:00 -26°C° 0 mm 2 mps 601 mmHg 91%
    22:00 -25°C° 0 mm 2 mps 602 mmHg 91%
    23:00 -26°C° 0.1 mm 2 mps 602 mmHg 92%

    Day after tomorrow, 15 December, Friday

    Time Temperature Precipitation Wind Pressure Humidity
    00:00 -26°C° 0.1 mm 2 mps 602 mmHg 92%
    01:00 -26°C° 0.1 mm 2 mps 602 mmHg 92%
    02:00 -26°C° 0 mm 2 mps 602 mmHg 92%
    03:00 -25°C° 0 mm 2 mps 602 mmHg 92%
    04:00 -25°C° 0 mm 2 mps 602 mmHg 91%
    05:00 -25°C° 0.1 mm 2 mps 602 mmHg 91%
    06:00 -25°C° 0.1 mm 2 mps 602 mmHg 91%
    07:00 -25°C° 0.1 mm 2 mps 603 mmHg 91%
    08:00 -24°C° 0 mm 2 mps 603 mmHg 90%
    09:00 -24°C° 0 mm 2 mps 603 mmHg 89%
    10:00 -23°C° 0 mm 2 mps 604 mmHg 88%
    11:00 -21°C° 0 mm 2 mps 604 mmHg 87%
    12:00 -20°C° 0 mm 2 mps 604 mmHg 85%
    13:00 -19°C° 0 mm 2 mps 604 mmHg 83%
    14:00 -20°C° 0 mm 2 mps 604 mmHg 85%
    15:00 -21°C° 0 mm 2 mps 603 mmHg 86%
    16:00 -24°C° 0 mm 2 mps 603 mmHg 88%
    17:00 -24°C° 0 mm 2 mps 603 mmHg 87%
    18:00 -25°C° 0 mm 2 mps 603 mmHg 86%
    19:00 -26°C° 0 mm 3 mps 603 mmHg 85%
    20:00 -26°C° 0 mm 3 mps 603 mmHg 85%
    21:00 -26°C° 0 mm 3 mps 603 mmHg 84%
    22:00 -26°C° 0 mm 3 mps 604 mmHg 83%
    23:00 -25°C° 0 mm 3 mps 603 mmHg 83%

    16 December, Saturday

    Time Temperature Precipitation Wind Pressure Humidity
    00:00 -25°C° 0 mm 3 mps 603 mmHg 83%
    01:00 -25°C° 0 mm 3 mps 603 mmHg 83%
    02:00 -24°C° 0 mm 3 mps 603 mmHg 84%
    03:00 -24°C° 0 mm 3 mps 603 mmHg 85%
    04:00 -24°C° 0 mm 3 mps 603 mmHg 85%
    05:00 -23°C° 0.1 mm 3 mps 603 mmHg 86%
    06:00 -23°C° 0.1 mm 3 mps 603 mmHg 87%
    07:00 -22°C° 0.1 mm 3 mps 603 mmHg 88%
    08:00 -22°C° 0 mm 3 mps 604 mmHg 87%
    09:00 -21°C° 0 mm 3 mps 604 mmHg 86%
    10:00 -21°C° 0 mm 3 mps 604 mmHg 85%
    11:00 -19°C° 0 mm 3 mps 604 mmHg 83%
    12:00 -18°C° 0 mm 3 mps 603 mmHg 82%
    13:00 -17°C° 0 mm 3 mps 603 mmHg 80%
    14:00 -18°C° 0 mm 3 mps 603 mmHg 81%
    15:00 -18°C° 0 mm 3 mps 602 mmHg 83%
    16:00 -19°C° 0 mm 3 mps 602 mmHg 84%
    17:00 -19°C° 0 mm 3 mps 602 mmHg 85%
    18:00 -21°C° 0 mm 3 mps 602 mmHg 85%
    19:00 -21°C° 0 mm 3 mps 601 mmHg 85%
    20:00 -21°C° 0 mm 3 mps 601 mmHg 85%
    21:00 -21°C° 0 mm 3 mps 601 mmHg 86%
    22:00 -21°C° 0 mm 3 mps 601 mmHg 86%
    23:00 -21°C° 0 mm 3 mps 601 mmHg 87%

    17 December, Sunday

    Time Temperature Precipitation Wind Pressure Humidity
    00:00 -19°C° 0 mm 2 mps 601 mmHg 87%
    01:00 -19°C° 0 mm 2 mps 601 mmHg 88%
    02:00 -18°C° 0.1 mm 2 mps 601 mmHg 88%
    03:00 -18°C° 0.1 mm 2 mps 601 mmHg 89%
    04:00 -18°C° 0.1 mm 2 mps 601 mmHg 90%
    05:00 -18°C° 0.1 mm 2 mps 602 mmHg 90%
    06:00 -18°C° 0.1 mm 2 mps 602 mmHg 91%
    07:00 -18°C° 0.1 mm 2 mps 602 mmHg 91%
    08:00 -17°C° 0.1 mm 2 mps 603 mmHg 91%
    09:00 -17°C° 0.1 mm 2 mps 603 mmHg 91%
    10:00 -17°C° 0.1 mm 2 mps 604 mmHg 91%
    11:00 -16°C° 0.1 mm 2 mps 604 mmHg 89%
    12:00 -15°C° 0.1 mm 2 mps 604 mmHg 87%
    13:00 -14°C° 0.1 mm 2 mps 604 mmHg 85%
    14:00 -16°C° 0 mm 2 mps 604 mmHg 87%
    15:00 -17°C° 0 mm 2 mps 604 mmHg 89%
    16:00 -19°C° 0 mm 2 mps 603 mmHg 92%
    17:00 -19°C° 0 mm 2 mps 603 mmHg 91%
    18:00 -19°C° 0 mm 2 mps 603 mmHg 91%
    19:00 -20°C° 0 mm 2 mps 603 mmHg 91%
    20:00 -20°C° 0 mm 2 mps 603 mmHg 91%
    21:00 -20°C° 0 mm 2 mps 603 mmHg 91%
    22:00 -20°C° 0 mm 2 mps 603 mmHg 91%
    23:00 -19°C° 0 mm 2 mps 603 mmHg 91%

    18 December, Monday

    Time Temperature Precipitation Wind Pressure Humidity
    00:00 -19°C° 0 mm 2 mps 603 mmHg 91%
    01:00 -19°C° 0 mm 2 mps 603 mmHg 91%
    02:00 -18°C° 0.1 mm 2 mps 604 mmHg 91%
    03:00 -18°C° 0.1 mm 2 mps 604 mmHg 91%
    04:00 -17°C° 0.1 mm 2 mps 604 mmHg 91%
    05:00 -17°C° 0.1 mm 2 mps 604 mmHg 92%
    06:00 -17°C° 0.1 mm 2 mps 604 mmHg 92%
    07:00 -16°C° 0.1 mm 2 mps 604 mmHg 92%
    08:00 -16°C° 0.1 mm 2 mps 605 mmHg 92%
    09:00 -16°C° 0.1 mm 2 mps 605 mmHg 91%
    10:00 -15°C° 0.1 mm 2 mps 605 mmHg 90%
    11:00 -15°C° 0 mm 2 mps 605 mmHg 88%
    12:00 -14°C° 0 mm 2 mps 605 mmHg 86%
    13:00 -13°C° 0 mm 2 mps 605 mmHg 84%
    14:00 -14°C° 0 mm 2 mps 605 mmHg 85%
    15:00 -16°C° 0 mm 2 mps 604 mmHg 86%
    16:00 -17°C° 0 mm 2 mps 604 mmHg 88%
    17:00 -17°C° 0 mm 2 mps 604 mmHg 88%
    18:00 -17°C° 0 mm 2 mps 604 mmHg 88%
    19:00 -17°C° 0 mm 2 mps 604 mmHg 88%
    20:00 -17°C° 0.1 mm 2 mps 604 mmHg 88%
    21:00 -17°C° 0.1 mm 2 mps 604 mmHg 88%
    22:00 -17°C° 0.1 mm 2 mps 604 mmHg 89%
    23:00 -18°C° 0.1 mm 3 mps 604 mmHg 88%
    Show more